Content
SEND FEEDBACK

Daily
Averages
Monthly
Summary
Mauritania

PORT-ETIENNE, MAURITANIA


Home > Africa > Mauritania
Elevation: 10 feet     Latitude: 20 54N     Longitude: 017 06W

WEATHER
 
SELECT A DAY
Number of Records: 117,687;   Date Range: 7/1/96 - 7/30/14
 
SHARE

PRINT THIS DATA

[ ← Previous Day ]
WEATHER ALMANAC - APRIL 18, 2013
[ Next Day → ]
[ °C ]   °F
Weather ElementAverageHighLow
Temperature66.3 °F71.6 °F (1:00 pm)62.6 °F (4:00 am)
Dewpoint61.2 °F64 °F (9:00 am)60.8 °F (12:00 am)
Humidity83.4 %97 % (6:00 am)69 % (1:00 pm)
Barometer29.85 in29.92 in (12:00 am)29.77 in (5:00 pm)
Wind Speed18 mph25.3 mph (5:00 pm)
Wind Gust36.8 mph (5:00 pm)
Weather ElementAverage
Visibility4.4 mi
Wind DirectionNNW (329.3 °)

Weather ElementTotal
Precipitation---
Cooling Degree Days2.1 (Base 65)
Growing Degree Days17.1 (Base 50)
Averaged from 29 records on April 18, 2013
WEATHER CONDITIONS BREAKOUT
WIND DIRECTION BREAKOUT
WEATHER BY HOUR - APRIL 18, 2013
[ °C ]   °F
Local TimeTemperatureDewpointHumidityBarometerVisibilityWind DirectionWind SpeedGust SpeedPrecipitationEventsConditions
12:00 AM64.4 °F60.8 °F88 %29.92 in5.0 miNNW (340°)16.1 mph
1:00 AM64.4 °F60.8 °F88 %29.89 in5.0 miNNW (340°)15.0 mph
2:00 AM64.4 °F60.8 °F88 %29.89 in5.0 miNNW (340°)15.0 mph
3:00 AM64.0 °F62.0 °F91 %29.89 in5.0 miNNW (340°)12.7 mphClear
4:00 AM62.6 °F60.8 °F94 %29.86 in5.0 miNNW (330°)12.7 mph
5:00 AM62.6 °F60.8 °F94 %29.86 in5.0 miNNW (340°)15.0 mph
6:00 AM62.6 °F60.8 °F94 %29.86 in5.0 miNNW (330°)11.5 mph
6:00 AM63.0 °F62.0 °F97 %29.88 in5.0 miNNW (330°)11.5 mphClear
7:00 AM62.6 °F60.8 °F94 %29.86 in5.0 miNNW (330°)12.7 mphMostly Cloudy
8:00 AM64.4 °F60.8 °F88 %29.89 in5.0 miNNW (330°)13.8 mphMostly Cloudy
9:00 AM66.0 °F64.0 °F89 %29.89 in4.0 miNNW (340°)20.7 mphPartly Cloudy
9:00 AM66.2 °F60.8 °F83 %29.86 in4.3 miNNW (330°)19.6 mphMostly Cloudy
10:00 AM66.2 °F60.8 °F83 %29.89 in3.7 miNNW (330°)23.0 mphLow Drifting Sand
11:00 AM69.8 °F62.6 °F78 %29.86 in3.7 miNNW (330°)19.6 mphMostly Cloudy
12:00 PM69.8 °F60.8 °F73 %29.86 in3.7 miNW (320°)21.9 mphMostly Cloudy
12:00 PM70.0 °F63.0 °F72 %29.88 in4.0 miNW (320°)21.9 mphBlowing Sand
1:00 PM71.6 °F60.8 °F69 %29.83 in3.7 miNNW (330°)21.9 mph33.4 mphLow Drifting Sand
2:00 PM71.6 °F60.8 °F69 %29.83 in3.7 miNW (320°)21.9 mphLow Drifting Sand
3:00 PM70.0 °F62.0 °F70 %29.82 in4.0 miNW (320°)23.0 mphBlowing Sand
3:00 PM69.8 °F60.8 °F73 %29.80 in3.7 miNW (320°)23.0 mphLow Drifting Sand
4:00 PM68.0 °F60.8 °F78 %29.80 in3.7 miNW (320°)24.2 mphLow Drifting Sand
5:00 PM68.0 °F60.8 °F78 %29.77 in3.7 miNW (320°)25.3 mph36.8 mphLow Drifting Sand
6:00 PM68.0 °F60.8 °F78 %29.77 in3.7 miNW (320°)23.0 mphLow Drifting Sand
7:00 PM66.2 °F60.8 °F83 %29.80 in3.7 miNW (320°)20.7 mphLow Drifting Sand
8:00 PM66.2 °F60.8 °F83 %29.80 in3.7 miNNW (340°)17.3 mphLow Drifting Sand
9:00 PM66.0 °F63.0 °F85 %29.84 in5.0 miNNW (330°)13.8 mphClear
9:00 PM66.2 °F60.8 °F83 %29.83 in5.0 miNNW (330°)15.0 mph
10:00 PM64.4 °F60.8 °F88 %29.83 in5.0 miNNW (330°)13.8 mph
11:00 PM64.4 °F60.8 °F88 %29.83 in5.0 miNNW (330°)15.0 mphMostly Cloudy
Hourly data recorded from GQPP, located miles away from Port-Etienne, Mauritania







STORIES FROM OUR PARTNERS